Location: Pcim
(49.7500°N, 19.9670°E)
Time: 00:40:55
(UTC+02:00)

ZACube-1 - Visible Passes

Search period start: 25 April 2024 00:00
Search period end: 05 May 2024 00:00
Orbit: 567 x 638 km, 97.7° (Epoch: 24 April)

Date Brightness Start Highest point End Pass type
(mag) Time Alt. Az. Time Alt. Az. Time Alt. Az.
25 Apr ? 03:12:31 10° NNE 03:16:39 38° E 03:20:08 14° SSE visible
25 Apr ? 04:48:33 10° N 04:52:17 28° WNW 04:56:02 10° WSW visible
26 Apr ? 03:24:16 10° NNE 03:28:33 50° E 03:32:12 14° S visible
27 Apr ? 03:36:01 10° NNE 03:40:25 65° ESE 03:44:16 13° S visible
28 Apr ? 02:14:42 10° ENE 02:15:48 11° E 02:16:53 10° E visible
28 Apr ? 03:47:48 10° NNE 03:52:15 84° ESE 03:56:18 12° SSW visible
29 Apr ? 02:25:22 10° NE 02:27:44 14° E 02:30:06 10° ESE visible
29 Apr ? 03:59:35 10° N 04:04:01 76° WNW 04:08:18 11° SSW visible
30 Apr ? 02:36:34 10° NE 02:39:38 18° E 02:42:41 10° SE visible
30 Apr ? 04:11:24 10° N 04:15:45 58° WNW 04:20:06 10° SSW visible
01 May ? 02:47:56 10° NE 02:51:29 23° E 02:55:01 10° SE visible
01 May ? 04:23:12 10° N 04:27:26 45° WNW 04:31:39 10° SW visible
02 May ? 02:59:23 10° NNE 03:03:17 29° E 03:07:09 10° SSE visible
02 May ? 04:35:03 10° N 04:39:05 36° WNW 04:43:07 10° SW visible
03 May ? 03:10:54 10° NNE 03:15:02 37° E 03:19:09 10° SSE visible
04 May ? 03:22:27 10° NNE 03:26:46 48° E 03:31:02 10° S visible
